Regional Weather Roundup
Issued by NWS

Home | Current Version | Previous Version | Graphics & Text | Print | Product List | Glossary On
Versions: 1 2 3 4 5 6 7 8 9 10 11 12 13 14 15 16 17 18 19 20 21 22 23 24 25 26 27 28 29 30 31 32 33 34 35 36 37 38 39 40 41 42 43 44 45 46 47 48 49 50
287
ASUS45 KBOI 252310
RWRID

IDAHO REGIONAL WEATHER ROUNDUP
NATIONAL WEATHER SERVICE BOISE ID
500 PM MDT MON JUL 25 2016

NOTE: "FAIR" INDICATES FEW OR NO CLOUDS BELOW 12000 FEET
WITH NO SIGNIFICANT WEATHER AND/OR OBSTRUCTIONS TO VISIBILITY

IDZ012-014-260000-
SOUTHWEST IDAHO


CITY           SKY/WX    TMP DP  RH WIND       PRES   REMARKS
BOISE          SUNNY     98  33  10 N6        29.94F HX  92
CALDWELL       NOT AVBL
MOUNTAIN HOME  SUNNY    101  27   7 NW7G17    29.93F HX  94
$$

IDZ016-017-260000-
SOUTHCENTRAL IDAHO


CITY           SKY/WX    TMP DP  RH WIND       PRES   REMARKS
BURLEY         SUNNY     92  35  13 NW9       30.02F
JEROME         SUNNY     92  41  17 W6        30.04F
TWIN FALLS     SUNNY     93  32  11 N7        30.05F
$$

IDZ019>023-260000-
SOUTHEAST IDAHO


CITY           SKY/WX    TMP DP  RH WIND       PRES   REMARKS
IDAHO FALLS    SUNNY     94  28   9 SW15      30.06F
POCATELLO      MOSUNNY   95  24   8 W10       30.06F
REXBURG        NOT AVBL
$$

IDZ006-010-011-018-031-032-260000-
CENTRAL IDAHO MOUNTAINS


CITY           SKY/WX    TMP DP  RH WIND       PRES   REMARKS
MCCALL         PTSUNNY   87  37  17 NE8       30.13F
HAILEY         MOSUNNY   91  36  14 W8        30.12S
STANLEY        NOT AVBL
SALMON         MOSUNNY   88  52  29 W5        29.98S
CHALLIS        MOSUNNY   89  30  12 E8        30.07F
$$

IDZ002-004-006-007-026-260000-
NORTHERN IDAHO


CITY           SKY/WX    TMP DP  RH WIND       PRES   REMARKS
LEWISTON       SUNNY     97  47  18 CALM      29.92F HX  93
LOWELL           N/A     97  47  18 VRB3      29.92F HX  93
COEUR D`ALENE  SUNNY     90  52  27 SW6       29.96F
MULLAN PASS    SUNNY     74  42  31 VRB6      30.23F
$$




USA.gov is the U.S. government's official web portal to all federal, state and local government web resources and services.